2026/08/31
| Sensor | Date | Temp./Hum. |
|---|---|---|
| h3-hermonville | 31-08-2026 - 14:59 | 21.9°C / 57.5% |
| h1-hermonville | 31-08-2026 - 14:53 | 21.8°C / 59.5% |
| h2-hermonville | 31-08-2026 - 14:53 | 22°C / 58% |
| h3-hermonville | 31-08-2026 - 14:49 | 21.8°C / 58.5% |
| h4-hermonville | 31-08-2026 - 14:48 | 21.9°C / 57.5% |
| h1-hermonville | 31-08-2026 - 14:43 | 22°C / 58% |
| h2-hermonville | 31-08-2026 - 14:43 | 22.5°C / 56.5% |
| h3-hermonville | 31-08-2026 - 14:39 | 22.1°C / 56% |
| h4-hermonville | 31-08-2026 - 14:38 | 22.1°C / 56% |
| h1-hermonville | 31-08-2026 - 14:33 | 22.2°C / 57% |
| h3-hermonville | 31-08-2026 - 14:29 | 22.2°C / 56% |
| h4-hermonville | 31-08-2026 - 14:28 | 21.9°C / 55.5% |
| h1-hermonville | 31-08-2026 - 14:23 | 22.1°C / 56.5% |
| h2-hermonville | 31-08-2026 - 14:23 | 22°C / 56% |
| h3-hermonville | 31-08-2026 - 14:19 | 21.9°C / 55.5% |
| h4-hermonville | 31-08-2026 - 14:18 | 21.9°C / 56% |
| h1-hermonville | 31-08-2026 - 14:13 | 22°C / 57% |
| h2-hermonville | 31-08-2026 - 14:13 | 22.4°C / 55% |
| h3-hermonville | 31-08-2026 - 14:09 | 22.1°C / 56% |
| h4-hermonville | 31-08-2026 - 14:08 | 21.9°C / 56.5% |
| h1-hermonville | 31-08-2026 - 14:03 | 21.8°C / 57.5% |
| h2-hermonville | 31-08-2026 - 14:03 | 22°C / 56.5% |
| h3-hermonville | 31-08-2026 - 13:59 | 21.8°C / 56% |
| h4-hermonville | 31-08-2026 - 13:58 | 21.9°C / 56.5% |
| h1-hermonville | 31-08-2026 - 13:53 | 22°C / 58% |
| h2-hermonville | 31-08-2026 - 13:53 | 22.2°C / 56.5% |
| h3-hermonville | 31-08-2026 - 13:49 | 22.3°C / 55.5% |
| h4-hermonville | 31-08-2026 - 13:48 | 22°C / 57.5% |
| h1-hermonville | 31-08-2026 - 13:43 | 21.7°C / 59% |
| h2-hermonville | 31-08-2026 - 13:43 | 22.3°C / 57.5% |
| h3-hermonville | 31-08-2026 - 13:39 | 22.1°C / 57% |
| h4-hermonville | 31-08-2026 - 13:38 | 21.7°C / 57.5% |
| h1-hermonville | 31-08-2026 - 13:33 | 21.2°C / 60% |
| h2-hermonville | 31-08-2026 - 13:33 | 21.7°C / 57.5% |
| h3-hermonville | 31-08-2026 - 13:29 | 21.5°C / 58.5% |
| h4-hermonville | 31-08-2026 - 13:28 | 21.5°C / 58% |
| h1-hermonville | 31-08-2026 - 13:23 | 21.2°C / 59.5% |
| h3-hermonville | 31-08-2026 - 13:19 | 21.1°C / 59% |
| h4-hermonville | 31-08-2026 - 13:18 | 21.3°C / 58% |
| h1-hermonville | 31-08-2026 - 13:13 | 20.9°C / 61.5% |
| h2-hermonville | 31-08-2026 - 13:13 | 20.9°C / 60.5% |
| h3-hermonville | 31-08-2026 - 13:09 | 20.9°C / 61.5% |
| h4-hermonville | 31-08-2026 - 13:08 | 21.1°C / 61% |
| h1-hermonville | 31-08-2026 - 13:03 | 20.7°C / 64.5% |
| h2-hermonville | 31-08-2026 - 13:03 | 20.7°C / 63.5% |
| h3-hermonville | 31-08-2026 - 12:59 | 20.6°C / 63.5% |
| h2-hermonville | 31-08-2026 - 12:53 | 20.7°C / 63.5% |
| h3-hermonville | 31-08-2026 - 12:49 | 20.5°C / 63% |
| h4-hermonville | 31-08-2026 - 12:48 | 21°C / 60.5% |
| h1-hermonville | 31-08-2026 - 12:43 | 20.6°C / 64% |
| h2-hermonville | 31-08-2026 - 12:43 | 20.7°C / 63.5% |
| h4-hermonville | 31-08-2026 - 12:38 | 21.2°C / 60.5% |
| h1-hermonville | 31-08-2026 - 12:33 | 20.6°C / 65.5% |
| h2-hermonville | 31-08-2026 - 12:33 | 20.5°C / 65% |
| h3-hermonville | 31-08-2026 - 12:29 | 20.3°C / 64.5% |
| h1-hermonville | 31-08-2026 - 12:23 | 20.5°C / 65.5% |
| h2-hermonville | 31-08-2026 - 12:23 | 20.4°C / 65.5% |
| h3-hermonville | 31-08-2026 - 12:19 | 20.3°C / 65% |
| h4-hermonville | 31-08-2026 - 12:18 | 20.8°C / 62.5% |
| h1-hermonville | 31-08-2026 - 12:13 | 20.3°C / 65% |
| h2-hermonville | 31-08-2026 - 12:13 | 20.3°C / 65% |
| h3-hermonville | 31-08-2026 - 12:09 | 20.2°C / 64% |
| h4-hermonville | 31-08-2026 - 12:08 | 20.6°C / 61.5% |
| h1-hermonville | 31-08-2026 - 12:03 | 20.2°C / 64.5% |
| h2-hermonville | 31-08-2026 - 12:03 | 20.3°C / 64% |
| h3-hermonville | 31-08-2026 - 11:59 | 20.3°C / 63.5% |
| h4-hermonville | 31-08-2026 - 11:58 | 21°C / 60.5% |
| h2-hermonville | 31-08-2026 - 11:53 | 20.4°C / 63.5% |
| h1-hermonville | 31-08-2026 - 11:53 | 20.2°C / 64% |
| h3-hermonville | 31-08-2026 - 11:49 | 20.2°C / 63% |
| h4-hermonville | 31-08-2026 - 11:48 | 21.2°C / 59% |
| h1-hermonville | 31-08-2026 - 11:43 | 20.3°C / 64% |
| h2-hermonville | 31-08-2026 - 11:43 | 20.3°C / 63% |
| h4-hermonville | 31-08-2026 - 11:38 | 22.1°C / 56% |
| h1-hermonville | 31-08-2026 - 11:33 | 20°C / 64.5% |
| h2-hermonville | 31-08-2026 - 11:33 | 20.3°C / 63.5% |
| h3-hermonville | 31-08-2026 - 11:29 | 20.2°C / 62.5% |
| h4-hermonville | 31-08-2026 - 11:28 | 23.8°C / 53% |
| h1-hermonville | 31-08-2026 - 11:23 | 19.5°C / 66.5% |
| h2-hermonville | 31-08-2026 - 11:23 | 19.5°C / 66% |
| h3-hermonville | 31-08-2026 - 11:19 | 19.3°C / 67.5% |
| h4-hermonville | 31-08-2026 - 11:18 | 21.4°C / 61% |
| h1-hermonville | 31-08-2026 - 11:13 | 19.6°C / 71% |
| h2-hermonville | 31-08-2026 - 11:13 | 19.4°C / 71% |
| h3-hermonville | 31-08-2026 - 11:09 | 19.2°C / 69% |
| h4-hermonville | 31-08-2026 - 11:08 | 21.2°C / 63% |
| h1-hermonville | 31-08-2026 - 11:03 | 19.6°C / 70% |
| h2-hermonville | 31-08-2026 - 11:03 | 19.4°C / 70% |
| h3-hermonville | 31-08-2026 - 10:59 | 19.3°C / 69.5% |
| h4-hermonville | 31-08-2026 - 10:58 | 20.8°C / 63.5% |
| h1-hermonville | 31-08-2026 - 10:53 | 19.4°C / 68.5% |
| h2-hermonville | 31-08-2026 - 10:53 | 19.6°C / 68% |
| h3-hermonville | 31-08-2026 - 10:49 | 19.6°C / 66.5% |
| h4-hermonville | 31-08-2026 - 10:48 | 21.6°C / 58.5% |
| h1-hermonville | 31-08-2026 - 10:43 | 19.8°C / 66% |
| h2-hermonville | 31-08-2026 - 10:43 | 19.8°C / 65.5% |
| h3-hermonville | 31-08-2026 - 10:39 | 19.7°C / 65.5% |
| h4-hermonville | 31-08-2026 - 10:38 | 22.4°C / 57.5% |
| h1-hermonville | 31-08-2026 - 10:33 | 19.6°C / 66.5% |
| h3-hermonville | 31-08-2026 - 10:29 | 19.4°C / 67% |
| h4-hermonville | 31-08-2026 - 10:28 | 22.4°C / 57% |
| h1-hermonville | 31-08-2026 - 10:23 | 19.2°C / 70% |
| h3-hermonville | 31-08-2026 - 10:19 | 19.3°C / 69.5% |
| h4-hermonville | 31-08-2026 - 10:18 | 23.3°C / 57.5% |
| h1-hermonville | 31-08-2026 - 10:13 | 19°C / 72% |
| h2-hermonville | 31-08-2026 - 10:13 | 18.9°C / 72% |
| h3-hermonville | 31-08-2026 - 10:09 | 18.8°C / 73% |
| h1-hermonville | 31-08-2026 - 10:03 | 19°C / 74.5% |
| h2-hermonville | 31-08-2026 - 10:03 | 18.9°C / 74.5% |
| h3-hermonville | 31-08-2026 - 09:59 | 18.8°C / 74% |
| h1-hermonville | 31-08-2026 - 09:53 | 18.6°C / 75% |
| h2-hermonville | 31-08-2026 - 09:53 | 18.5°C / 75% |
| h3-hermonville | 31-08-2026 - 09:49 | 18.6°C / 75% |
| h4-hermonville | 31-08-2026 - 09:48 | 21.3°C / 64.5% |
| h1-hermonville | 31-08-2026 - 09:43 | 18.5°C / 75% |
| h2-hermonville | 31-08-2026 - 09:43 | 18.5°C / 74.5% |
| h3-hermonville | 31-08-2026 - 09:39 | 18.4°C / 74.5% |
| h4-hermonville | 31-08-2026 - 09:38 | 21.6°C / 64% |
| h1-hermonville | 31-08-2026 - 09:33 | 18.6°C / 75% |
| h2-hermonville | 31-08-2026 - 09:33 | 18.5°C / 75% |
| h4-hermonville | 31-08-2026 - 09:28 | 21.6°C / 64.5% |
| h1-hermonville | 31-08-2026 - 09:23 | 18.5°C / 75.5% |
| h2-hermonville | 31-08-2026 - 09:23 | 18.3°C / 76% |
| h3-hermonville | 31-08-2026 - 09:19 | 18.2°C / 76% |
| h4-hermonville | 31-08-2026 - 09:18 | 19.9°C / 68.5% |
| h1-hermonville | 31-08-2026 - 09:13 | 18.5°C / 75.5% |
| h2-hermonville | 31-08-2026 - 09:13 | 18.3°C / 76% |
| h3-hermonville | 31-08-2026 - 09:09 | 18.2°C / 76% |
| h1-hermonville | 31-08-2026 - 09:03 | 18.3°C / 76.5% |
| h2-hermonville | 31-08-2026 - 09:03 | 18.2°C / 77% |
| h3-hermonville | 31-08-2026 - 08:59 | 18.1°C / 77% |
| h4-hermonville | 31-08-2026 - 08:58 | 20.2°C / 68.5% |
| h1-hermonville | 31-08-2026 - 08:53 | 18.3°C / 77% |
| h2-hermonville | 31-08-2026 - 08:53 | 18.1°C / 77% |
| h3-hermonville | 31-08-2026 - 08:49 | 18°C / 77% |
| h1-hermonville | 31-08-2026 - 08:43 | 18.1°C / 77% |
| h2-hermonville | 31-08-2026 - 08:43 | 18°C / 77.5% |
| h3-hermonville | 31-08-2026 - 08:39 | 17.9°C / 77.5% |
| h4-hermonville | 31-08-2026 - 08:38 | 20.4°C / 67% |
| h1-hermonville | 31-08-2026 - 08:33 | 18°C / 77.5% |
| h2-hermonville | 31-08-2026 - 08:33 | 17.9°C / 78% |
| h3-hermonville | 31-08-2026 - 08:29 | 17.7°C / 78% |
| h4-hermonville | 31-08-2026 - 08:28 | 20.1°C / 68.5% |
| h1-hermonville | 31-08-2026 - 08:23 | 17.8°C / 78% |
| h3-hermonville | 31-08-2026 - 08:19 | 17.6°C / 78.5% |
| h4-hermonville | 31-08-2026 - 08:18 | 20.7°C / 66.5% |
| h1-hermonville | 31-08-2026 - 08:13 | 17.7°C / 79% |
| h2-hermonville | 31-08-2026 - 08:13 | 17.8°C / 79% |
| h3-hermonville | 31-08-2026 - 08:09 | 17.5°C / 79.5% |
| h4-hermonville | 31-08-2026 - 08:08 | 20.6°C / 67.5% |
| h1-hermonville | 31-08-2026 - 08:03 | 17.6°C / 79.5% |
| h2-hermonville | 31-08-2026 - 08:03 | 17.6°C / 79.5% |
| h3-hermonville | 31-08-2026 - 07:59 | 17.3°C / 79.5% |
| h4-hermonville | 31-08-2026 - 07:58 | 19.3°C / 72.5% |
| h1-hermonville | 31-08-2026 - 07:53 | 17.6°C / 79.5% |
| h2-hermonville | 31-08-2026 - 07:53 | 17.5°C / 79.5% |
| h3-hermonville | 31-08-2026 - 07:49 | 17.4°C / 79.5% |
| h4-hermonville | 31-08-2026 - 07:48 | 18.2°C / 75.5% |
| h1-hermonville | 31-08-2026 - 07:43 | 17.5°C / 79.5% |
| h2-hermonville | 31-08-2026 - 07:43 | 17.5°C / 79.5% |
| h3-hermonville | 31-08-2026 - 07:39 | 17.3°C / 79.5% |
| h4-hermonville | 31-08-2026 - 07:38 | 17.8°C / 76.5% |
| h1-hermonville | 31-08-2026 - 07:33 | 17.5°C / 79% |
| h2-hermonville | 31-08-2026 - 07:33 | 17.5°C / 79% |
| h3-hermonville | 31-08-2026 - 07:29 | 17.4°C / 79% |
| h4-hermonville | 31-08-2026 - 07:28 | 17.8°C / 76.5% |
| h1-hermonville | 31-08-2026 - 07:23 | 17.7°C / 79% |
| h2-hermonville | 31-08-2026 - 07:23 | 17.6°C / 79% |
| h3-hermonville | 31-08-2026 - 07:19 | 17.5°C / 80% |
| h1-hermonville | 31-08-2026 - 07:13 | 17.5°C / 79.5% |
| h2-hermonville | 31-08-2026 - 07:13 | 17.6°C / 80% |
| h3-hermonville | 31-08-2026 - 07:09 | 17.4°C / 80% |
| h4-hermonville | 31-08-2026 - 07:08 | 17.7°C / 77.5% |
| h1-hermonville | 31-08-2026 - 07:03 | 17.6°C / 80% |
| h2-hermonville | 31-08-2026 - 07:03 | 17.6°C / 80% |
| h3-hermonville | 31-08-2026 - 06:59 | 17.5°C / 80.5% |
| h4-hermonville | 31-08-2026 - 06:58 | 17.8°C / 77.5% |
| h1-hermonville | 31-08-2026 - 06:53 | 17.7°C / 80% |
| h2-hermonville | 31-08-2026 - 06:53 | 17.6°C / 80% |
| h3-hermonville | 31-08-2026 - 06:49 | 17.5°C / 80% |
| h4-hermonville | 31-08-2026 - 06:48 | 17.8°C / 77.5% |
| h1-hermonville | 31-08-2026 - 06:43 | 17.6°C / 80% |
| h2-hermonville | 31-08-2026 - 06:43 | 17.7°C / 79.5% |
| h3-hermonville | 31-08-2026 - 06:39 | 17.6°C / 80% |
| h4-hermonville | 31-08-2026 - 06:38 | 17.9°C / 77.5% |
| h1-hermonville | 31-08-2026 - 06:33 | 17.7°C / 80% |
| h3-hermonville | 31-08-2026 - 06:29 | 17.7°C / 80% |
| h4-hermonville | 31-08-2026 - 06:28 | 17.9°C / 77.5% |
| h1-hermonville | 31-08-2026 - 06:23 | 17.8°C / 80% |
| h2-hermonville | 31-08-2026 - 06:23 | 17.8°C / 79.5% |
| h3-hermonville | 31-08-2026 - 06:19 | 17.7°C / 79.5% |
| h4-hermonville | 31-08-2026 - 06:18 | 18.1°C / 77% |
| h1-hermonville | 31-08-2026 - 06:13 | 17.9°C / 79.5% |
| h2-hermonville | 31-08-2026 - 06:13 | 17.8°C / 79.5% |
| h3-hermonville | 31-08-2026 - 06:09 | 17.6°C / 80% |
| h4-hermonville | 31-08-2026 - 06:08 | 18°C / 77.5% |
| h1-hermonville | 31-08-2026 - 06:03 | 17.9°C / 79.5% |
| h2-hermonville | 31-08-2026 - 06:03 | 17.8°C / 79.5% |
| h3-hermonville | 31-08-2026 - 05:59 | 17.6°C / 80% |
| h4-hermonville | 31-08-2026 - 05:58 | 18°C / 77.5% |
| h1-hermonville | 31-08-2026 - 05:53 | 17.9°C / 80% |
| h2-hermonville | 31-08-2026 - 05:53 | 17.8°C / 80% |
| h3-hermonville | 31-08-2026 - 05:49 | 17.5°C / 80% |
| h4-hermonville | 31-08-2026 - 05:48 | 18°C / 78% |
| h1-hermonville | 31-08-2026 - 05:43 | 17.7°C / 80% |
| h2-hermonville | 31-08-2026 - 05:43 | 17.7°C / 80.5% |
| h3-hermonville | 31-08-2026 - 05:39 | 17.6°C / 81% |
| h4-hermonville | 31-08-2026 - 05:38 | 18°C / 78.5% |
| h1-hermonville | 31-08-2026 - 05:33 | 17.8°C / 81% |
| h3-hermonville | 31-08-2026 - 05:29 | 17.6°C / 81.5% |
| h4-hermonville | 31-08-2026 - 05:28 | 18°C / 78.5% |
| h1-hermonville | 31-08-2026 - 05:23 | 17.7°C / 82% |
| h2-hermonville | 31-08-2026 - 05:23 | 17.6°C / 82% |
| h3-hermonville | 31-08-2026 - 05:19 | 17.3°C / 83% |
| h4-hermonville | 31-08-2026 - 05:18 | 17.9°C / 79.5% |
| h1-hermonville | 31-08-2026 - 05:13 | 17.7°C / 82% |
| h2-hermonville | 31-08-2026 - 05:13 | 17.5°C / 83% |
| h3-hermonville | 31-08-2026 - 05:09 | 17.2°C / 83.5% |
| h4-hermonville | 31-08-2026 - 05:08 | 17.9°C / 79.5% |
| h1-hermonville | 31-08-2026 - 05:03 | 17.5°C / 82.5% |
| h2-hermonville | 31-08-2026 - 05:03 | 17.4°C / 83% |
| h3-hermonville | 31-08-2026 - 04:59 | 17.3°C / 83.5% |
| h4-hermonville | 31-08-2026 - 04:58 | 17.8°C / 80% |
| h1-hermonville | 31-08-2026 - 04:53 | 17.5°C / 82.5% |
| h2-hermonville | 31-08-2026 - 04:53 | 17.4°C / 83% |
| h3-hermonville | 31-08-2026 - 04:49 | 17.2°C / 83.5% |
| h4-hermonville | 31-08-2026 - 04:48 | 17.9°C / 79.5% |
| h1-hermonville | 31-08-2026 - 04:43 | 17.5°C / 82.5% |
| h2-hermonville | 31-08-2026 - 04:43 | 17.4°C / 82.5% |
| h3-hermonville | 31-08-2026 - 04:39 | 17.3°C / 83% |
| h4-hermonville | 31-08-2026 - 04:38 | 17.8°C / 79% |
| h1-hermonville | 31-08-2026 - 04:33 | 17.5°C / 82.5% |
| h2-hermonville | 31-08-2026 - 04:33 | 17.5°C / 82.5% |
| h3-hermonville | 31-08-2026 - 04:29 | 17.2°C / 83% |
| h4-hermonville | 31-08-2026 - 04:28 | 17.9°C / 79% |
| h1-hermonville | 31-08-2026 - 04:23 | 17.6°C / 82% |
| h2-hermonville | 31-08-2026 - 04:23 | 17.4°C / 82.5% |
| h3-hermonville | 31-08-2026 - 04:19 | 17.2°C / 83% |
| h4-hermonville | 31-08-2026 - 04:18 | 18°C / 79% |
| h2-hermonville | 31-08-2026 - 04:13 | 17.5°C / 82% |
| h3-hermonville | 31-08-2026 - 04:09 | 17.2°C / 82% |
| h4-hermonville | 31-08-2026 - 04:08 | 17.9°C / 78.5% |
| h1-hermonville | 31-08-2026 - 04:03 | 17.7°C / 81.5% |
| h2-hermonville | 31-08-2026 - 04:03 | 17.5°C / 81.5% |
| h4-hermonville | 31-08-2026 - 03:58 | 18.1°C / 78% |
| h1-hermonville | 31-08-2026 - 03:53 | 17.7°C / 81% |
| h3-hermonville | 31-08-2026 - 03:49 | 17.4°C / 81.5% |
| h4-hermonville | 31-08-2026 - 03:48 | 18.1°C / 78% |
| h1-hermonville | 31-08-2026 - 03:43 | 17.7°C / 81% |
| h2-hermonville | 31-08-2026 - 03:43 | 17.7°C / 81.5% |
| h3-hermonville | 31-08-2026 - 03:39 | 17.5°C / 82% |
| h1-hermonville | 31-08-2026 - 03:33 | 17.8°C / 81% |
| h2-hermonville | 31-08-2026 - 03:33 | 17.6°C / 81.5% |
| h3-hermonville | 31-08-2026 - 03:29 | 17.5°C / 82% |
| h4-hermonville | 31-08-2026 - 03:28 | 18.2°C / 78% |
| h1-hermonville | 31-08-2026 - 03:23 | 17.9°C / 81.5% |
| h2-hermonville | 31-08-2026 - 03:23 | 17.8°C / 81.5% |
| h3-hermonville | 31-08-2026 - 03:19 | 17.6°C / 82% |
| h4-hermonville | 31-08-2026 - 03:18 | 18.4°C / 78.5% |
| h1-hermonville | 31-08-2026 - 03:13 | 18°C / 81.5% |
| h2-hermonville | 31-08-2026 - 03:13 | 17.9°C / 81.5% |
| h3-hermonville | 31-08-2026 - 03:09 | 17.7°C / 82% |
| h4-hermonville | 31-08-2026 - 03:08 | 18.4°C / 78% |
| h1-hermonville | 31-08-2026 - 03:03 | 18.1°C / 81.5% |
| h2-hermonville | 31-08-2026 - 03:03 | 18°C / 81.5% |
| h3-hermonville | 31-08-2026 - 02:59 | 17.7°C / 82% |
| h4-hermonville | 31-08-2026 - 02:58 | 18.5°C / 78.5% |
| h1-hermonville | 31-08-2026 - 02:53 | 18.2°C / 81.5% |
| h2-hermonville | 31-08-2026 - 02:53 | 18°C / 81.5% |
| h3-hermonville | 31-08-2026 - 02:49 | 17.9°C / 82% |
| h4-hermonville | 31-08-2026 - 02:48 | 18.6°C / 78.5% |
| h1-hermonville | 31-08-2026 - 02:43 | 18.3°C / 82% |
| h2-hermonville | 31-08-2026 - 02:43 | 18.1°C / 82% |
| h3-hermonville | 31-08-2026 - 02:39 | 17.9°C / 82.5% |
| h1-hermonville | 31-08-2026 - 02:33 | 18.3°C / 82% |
| h2-hermonville | 31-08-2026 - 02:33 | 18.1°C / 82% |
| h3-hermonville | 31-08-2026 - 02:29 | 18.2°C / 82.5% |
| h4-hermonville | 31-08-2026 - 02:28 | 18.6°C / 79% |
| h1-hermonville | 31-08-2026 - 02:23 | 18.4°C / 82% |
| h2-hermonville | 31-08-2026 - 02:23 | 18.3°C / 82% |
| h3-hermonville | 31-08-2026 - 02:19 | 18.1°C / 82% |
| h1-hermonville | 31-08-2026 - 02:13 | 18.5°C / 81.5% |
| h2-hermonville | 31-08-2026 - 02:13 | 18.4°C / 82% |
| h3-hermonville | 31-08-2026 - 02:09 | 18.3°C / 82% |
| h4-hermonville | 31-08-2026 - 02:08 | 18.9°C / 78.5% |
| h1-hermonville | 31-08-2026 - 02:03 | 18.6°C / 81.5% |
| h2-hermonville | 31-08-2026 - 02:03 | 18.5°C / 81.5% |
| h3-hermonville | 31-08-2026 - 01:59 | 18.3°C / 81% |
| h4-hermonville | 31-08-2026 - 01:58 | 18.9°C / 78.5% |
| h1-hermonville | 31-08-2026 - 01:53 | 18.6°C / 81% |
| h2-hermonville | 31-08-2026 - 01:53 | 18.6°C / 81% |
| h3-hermonville | 31-08-2026 - 01:49 | 18.5°C / 81.5% |
| h4-hermonville | 31-08-2026 - 01:48 | 19°C / 78% |
| h1-hermonville | 31-08-2026 - 01:43 | 18.7°C / 81% |
| h2-hermonville | 31-08-2026 - 01:43 | 18.7°C / 81% |
| h3-hermonville | 31-08-2026 - 01:39 | 18.5°C / 81% |
| h4-hermonville | 31-08-2026 - 01:38 | 19°C / 78% |
| h1-hermonville | 31-08-2026 - 01:33 | 18.8°C / 81% |
| h2-hermonville | 31-08-2026 - 01:33 | 18.7°C / 81% |
| h3-hermonville | 31-08-2026 - 01:29 | 18.7°C / 81% |
| h4-hermonville | 31-08-2026 - 01:28 | 19.1°C / 78% |
| h1-hermonville | 31-08-2026 - 01:23 | 18.8°C / 80.5% |
| h2-hermonville | 31-08-2026 - 01:23 | 18.8°C / 81% |
| h3-hermonville | 31-08-2026 - 01:19 | 18.7°C / 81% |
| h4-hermonville | 31-08-2026 - 01:18 | 19.2°C / 78% |
| h1-hermonville | 31-08-2026 - 01:13 | 19°C / 80.5% |
| h2-hermonville | 31-08-2026 - 01:13 | 18.8°C / 81% |
| h3-hermonville | 31-08-2026 - 01:09 | 18.9°C / 81% |
| h4-hermonville | 31-08-2026 - 01:08 | 19.4°C / 78% |
| h1-hermonville | 31-08-2026 - 01:03 | 19.1°C / 80.5% |
| h2-hermonville | 31-08-2026 - 01:03 | 18.9°C / 80.5% |
| h3-hermonville | 31-08-2026 - 00:59 | 19°C / 80.5% |
| h4-hermonville | 31-08-2026 - 00:58 | 19.4°C / 77.5% |
| h1-hermonville | 31-08-2026 - 00:53 | 19.2°C / 80% |
| h2-hermonville | 31-08-2026 - 00:53 | 19.1°C / 80% |
| h3-hermonville | 31-08-2026 - 00:49 | 19°C / 80% |
| h4-hermonville | 31-08-2026 - 00:48 | 19.6°C / 77% |
| h1-hermonville | 31-08-2026 - 00:43 | 19.3°C / 79.5% |
| h2-hermonville | 31-08-2026 - 00:43 | 19.2°C / 79.5% |
| h3-hermonville | 31-08-2026 - 00:39 | 19.1°C / 79.5% |
| h4-hermonville | 31-08-2026 - 00:38 | 19.6°C / 76.5% |
| h1-hermonville | 31-08-2026 - 00:33 | 19.4°C / 79% |
| h2-hermonville | 31-08-2026 - 00:33 | 19.3°C / 79% |
| h3-hermonville | 31-08-2026 - 00:29 | 19.3°C / 79% |
| h4-hermonville | 31-08-2026 - 00:28 | 19.8°C / 76% |
| h1-hermonville | 31-08-2026 - 00:23 | 19.5°C / 78.5% |
| h3-hermonville | 31-08-2026 - 00:19 | 19.5°C / 78% |
| h4-hermonville | 31-08-2026 - 00:18 | 19.8°C / 75.5% |
| h1-hermonville | 31-08-2026 - 00:13 | 19.6°C / 78% |
| h2-hermonville | 31-08-2026 - 00:13 | 19.5°C / 77.5% |
| h3-hermonville | 31-08-2026 - 00:09 | 19.5°C / 77.5% |
| h4-hermonville | 31-08-2026 - 00:08 | 19.9°C / 75% |
| h1-hermonville | 31-08-2026 - 00:03 | 19.6°C / 77.5% |
| h2-hermonville | 31-08-2026 - 00:03 | 19.7°C / 77% |